Regional Weather Roundup
Issued by NWS

Home | Current Version | Previous Version | Text Only | Print | Product List | Glossary Off
Versions: 1 2 3 4 5 6 7 8 9 10 11 12 13 14 15 16 17 18 19 20 21 22 23 24 25 26 27 28 29 30 31 32 33 34 35 36 37 38 39 40 41 42 43 44 45 46 47 48 49 50

962
ASUS44 KJAN 190803
RWRMS

MISSISSIPPI HOURLY WEATHER ROUNDUP
NATIONAL WEATHER SERVICE JACKSON MS
300 AM CDT FRI SEP 19 2014

NOTE: "FAIR: INDICATES FEW OR NO CLOUDS BELOW 12,000 FEET WITH NO
SIGNIFICANT WEATHER AND/OR OBSTRUCTIONS TO VISIBILITY.

MSZ001>002-007>008-010>013-018>021-025>028-034>036-190900-
NORTHWEST MISSISSIPPI

CITY           SKY/WX    TMP DP  RH WIND       PRES   REMARKS
CLARKSDALE       N/A     66  66 100 CALM      29.99F
CLEVELAND      FAIR      68  68 100 NE3       29.96F
GREENWOOD      PTCLDY    68  66  93 NE5       29.96F FOG
GREENVILLE     CLEAR     70  67  90 NE5       29.96F
GRENADA        FAIR      64  64 100 CALM      29.98F
OLIVE BRANCH   CLEAR     64 N/A N/A SE3       30.00S
OXFORD         FAIR      63  63 100 CALM      30.00F
TUNICA         FOG       64  64 100 CALM      30.00S VSB 1/4
$$

MSZ003>006-009-014>017-022>024-029>033-037>039-190900-
NORTHEAST MISSISSIPPI

CITY           SKY/WX    TMP DP  RH WIND       PRES   REMARKS
COLUMBUS AFB   CLOUDY    68  68 100 CALM      29.97F
CORINTH        FOG       66  64  94 N3        29.99F VSB<1/4
GOLDN TRIANGLE CLOUDY    70  64  83 NE7       29.97F
STARKVILLE     FAIR      66  66 100 CALM      29.96F
TUPELO         PTCLDY    68  66  93 CALM      29.98F
$$

MSZ040-058-190900-
CENTRAL MISSISSIPPI

CITY           SKY/WX    TMP DP  RH WIND       PRES   REMARKS
JACKSON INTL   PTCLDY    69  67  93 CALM      29.95F
JACKSON HAWKNS PTCLDY    69  66  90 CALM      29.95F
MERIDIAN KEY   CLOUDY    69  68  96 CALM      29.95S
MERIDIAN NAS   CLOUDY    70  68  93 CALM      29.96S
RAYMOND        FAIR      66  63  88 CALM      29.95F
VICKSBURG      PTCLDY    67  65  93 NE5       29.93F
$$

MSZ059>079-190900-
SOUTH MISSISSIPPI

CITY           SKY/WX    TMP DP  RH WIND       PRES   REMARKS
BROOKHAVEN     FAIR      68  68 100 CALM      29.96S FOG
COLUMBIA       FAIR      70  68  94 CALM      29.92F FOG
HATTIESBURG    CLOUDY    71  69  93 CALM      29.94F
MCCOMB         CLOUDY    71  69  93 CALM      29.93F
NATCHEZ        MOCLDY    70  68  94 CALM      29.92S
PINE BELT      CLOUDY   N/A N/A N/A N3        29.95F
$$

MSZ080>082-190900-
COASTAL MISSISSIPPI

CITY           SKY/WX    TMP DP  RH WIND       PRES   REMARKS
BILOXI         LGT RAIN  72  69  89 E6        29.94R
PASCAGOULA     CLOUDY    70  68  93 S6        29.94R
GULFPORT       LGT RAIN  72  69  90 CALM      29.93S
$$



USA.gov is the U.S. government's official web portal to all federal, state and local government web resources and services.